Artemis II

operational
NORAD ID: 68538 Int'l Des: 2026-069 Owner: JSC Country: US
MEOELLIPTICALHEO_ELLIPTICAL

关于 Artemis II

正在加载描述...

实时位置

正在加载3D地球...

即将过境

高度历史

Altitude vs Time

uPlot chart will show altitude changes over time

两行轨道根数

1 68538U 26069A 26092.98100440 -.00030777 16879-4 00000+0 0 9997
2 68538 28.1492 354.5431 9814905 83.2597 352.5489 0.07782040 18
Epoch: Apr 2, 2026 • Age: 28 hours

当前状态

高度 217428.7 km
速度 1.36 km/s
星下点 -25.75°S, 4.98°W
发射日期 Apr 1, 2026
运行时间 3 days
类型 other

技术详情

分类 Payload
质量 10387.00 kg
干质量 9400.00 kg
总质量 25848.00 kg
长度 3.50 m
直径 5.00 m
跨度 5.00 m
形状 Cone
制造商 LMKSC
平台类型 Orion
阶段状态 Deep Space
所有者/国家 JSC/US

大型星座

Loading constellations...